This is the latest recevied weather packets stored in our database for station/object AA8FM-13. If no packets are shown the sender has not sent any weather packets the latest 1 day(s).
| Time | Temp. | Humidity | Pressure | Rain* | Wind** | Luminosity | Snow |
|---|---|---|---|---|---|---|---|
| 1778038740 | 17.22° C | 67% | 1005.8 hPa | 0 mm | 0 m/s | 0 W/m² | - |
| 1778038437 | 17.78° C | 68% | 1005.5 hPa | 0 mm | 0 m/s | 0 W/m² | - |
| 1778038134 | 17.78° C | 64% | 1005.4 hPa | 0 mm | 0 m/s | 0 W/m² | - |
| 1778037830 | 17.78° C | 69% | 1005.7 hPa | 0 mm | 0 m/s | 0 W/m² | - |
| 1778037527 | 17.78° C | 67% | 1005.8 hPa | 0 mm | 0 m/s | 0 W/m² | - |
| 1778037225 | 17.78° C | 66% | 1006.1 hPa | 0 mm | 0 m/s | 0 W/m² | - |
| 1778036922 | 17.78° C | 66% | 1005.8 hPa | 0 mm | 0 m/s | 0 W/m² | - |
| 1778036620 | 17.78° C | 65% | 1005.7 hPa | 0 mm | 0 m/s | 0 W/m² | - |
| 1778036317 | 18.33° C | 67% | 1005.9 hPa | 0 mm | 0 m/s | 0 W/m² | - |
| 1778036013 | 18.33° C | 62% | 1005.7 hPa | 0 mm | 0 m/s | 0 W/m² | - |
| 1778035710 | 18.89° C | 63% | 1005.8 hPa | 0 mm | 0 m/s | 0 W/m² | - |
| 1778035407 | 19.44° C | 58% | 1006.1 hPa | 0 mm | 0 m/s | 0 W/m² | - |
| 1778035103 | 18.89° C | 59% | 1006.3 hPa | 0 mm | 0 m/s | 0 W/m² | - |
| 1778034800 | 19.44° C | 59% | 1006 hPa | 0 mm | 0 m/s | 0 W/m² | - |
| 1778034496 | 19.44° C | 57% | 1005.9 hPa | 0 mm | 0 m/s | 0 W/m² | - |
| 1778034195 | 19.44° C | 56% | 1005.9 hPa | 0 mm | 0 m/s | 0 W/m² | - |
| 1778033893 | 19.44° C | 54% | 1006 hPa | 0 mm | 0.45 m/s, 157° | 0 W/m² | - |
| 1778033589 | 20° C | 54% | 1006 hPa | 0 mm | 0 m/s | 0 W/m² | - |
| 1778033286 | 20° C | 53% | 1006 hPa | 0 mm | 0 m/s | 0 W/m² | - |
| 1778032984 | 20° C | 54% | 1006.1 hPa | 0 mm | 0.45 m/s, 358° | 0 W/m² | - |
| 1778032681 | 20.56° C | 53% | 1006.3 hPa | 0 mm | 0 m/s | 0 W/m² | - |
| 1778032379 | 20.56° C | 53% | 1006.4 hPa | 0 mm | 0 m/s | 0 W/m² | - |
| 1778032075 | 20.56° C | 52% | 1006.4 hPa | 0 mm | 0 m/s | 0 W/m² | - |
| 1778031772 | 20.56° C | 55% | 1006.6 hPa | 0 mm | 0 m/s | 0 W/m² | - |
| 1778031469 | 20° C | 56% | 1006.5 hPa | 0 mm | 0.45 m/s, 235° | 0 W/m² | - |
* Rain latest hour (hover to see other rain measurements)
** Current wind speed in m/s (hover to see current wind gust speed)